COSMOS 2251 DEB, 37496

Orbit data source: Space-Track

COSMOS 2251 DEB, 37496 is space debris in LEO originally from a launch on Wed, 16 Jun 1993 UTC launched from the Plesetsk Missile And Space Complex (PKMTR). The debris from Iridium 33, an American commercial communications satellite, has been tracked extensively since its accidental collision with the defunct Russian satellite Cosmos 2251 in 2009. This event, occurring at high speed in low Earth orbit (LEO), generated thousands of pieces of space debris, significantly increasing the risk of further collisions. The Iridium 33 debris cloud has impacted space traffic management and orbital debris mitigation strategies, making it a subject of ongoing study in space situational awareness.

Loading next visibility...
Identifier
37496, 1993-036BLZ
Orbit
LEO
Country
Flag of CISCIS
Related business
Manufacturer
Unknown
Mission
Spacecraft
Bus & Motor
Unknown
Mass
Unknown
Launch date (UTC)
1993-06-16 (33 years ago)
Launch vehicle
Unknown
Launch site
Plesetsk Missile And Space Complex (PKMTR)
Object type
Payload
Rocket body
Debris
Shape & HBR
Unknown shape, 0.1 m
Radar Cross Section
Small (<0.1 m²)

Expand to show TLE details & history
Last TLE update: 3 days ago

TLE from 3 days ago
0 COSMOS 2251 DEB
1 37496U 93036BLZ 26031.78844562  .00024334  00000-0  20959-2 0  9999
2 37496  73.9461 220.3852 0064649 220.3391 139.2990 14.95629088667657
Epoch: 2026-01-31T18:55Z
TLE epoch observation values (Epoch: 2026-01-31T18:55:21.701Z)
Latitude
0.00004°
Longitude
165.53738°
Altitude
617.332 km
Speed
7.532 km/s
True Right ascension
14h 41m 32s
True Declination
0° 00' 00"
Sunlit
Object was in daylight at epoch
Visualization orbit readout
Latitude
Unknown
Longitude
Unknown
Altitude
Unknown
Speed
Unknown
Apparent Right ascension
Unknown
Apparent Declination
Unknown
Sunlit
N/A
Visualization observer readout
Local Sidereal Time
11:43:10
Azimuth
Unknown
Elevation
Unknown
Doppler factor
Unknown
Orbital elements
Apogee altitude
622.958 km
Perigee altitude
533.016 km
Semi-major axis
6,956.124 km
Eccentricity
0.00646
Inclination
73.9461°
RAAN
220.3852°
Arg. of periapsis
220.3391°
True anomaly
139.77915°
Mean anomaly
139.299°
Eccentric anomaly
139.53937°
Mean motion
3.74104 °/min
Orbital period
96.23 mins
BSTAR
0.0020959
Loading maneuver chart data...
Computing Atmospheric mass density...

Documentation

Showing up to 5 results
|